FW9105 Weather Reports


time (UTC)temp
C
wind
direction
speed
KPH
gust
KPH
rain 1hr
cm
rain 24hr
cm
rain mn
cm
humidity
%
barometer
mb
20260504050001 11 283 3.2 8.0 0.00 0.00 0.00 56 1011.1
20260504044459 12 227 1.6 8.0 0.00 0.00 0.00 54 1010.9
20260504042959 12 272 1.6 4.8 0.00 0.00 0.00 53 1010.7
20260504041459 12 360 4.8 6.4 0.00 0.00 0.00 53 1010.9
20260504040005 12 286 4.8 6.4 0.00 0.00 0.00 52 1010.9
20260504034500 12 286 3.2 4.8 0.00 0.00 0.00 52 1010.8
20260504033001 12 284 3.2 4.8 0.00 0.00 0.00 53 1011.0
20260504031501 12 286 1.6 4.8 0.00 0.00 0.00 53 1011.2
20260504030003 12 286 3.2 4.8 0.00 0.00 0.00 53 1011.0
20260504024500 12 321 3.2 4.8 0.00 0.00 0.00 53 1011.1
20260504022959 12 296 4.8 6.4 0.00 0.00 0.00 53 1011.0
20260504020002 12 295 6.4 12.9 0.00 0.00 0.00 52 1010.7
20260504014501 13 300 4.8 12.9 0.00 0.00 0.00 51 1010.5
20260504013042 13 264 6.4 12.9 0.00 0.00 0.00 50 1010.3
20260504011501 13 279 6.4 14.5 0.00 0.00 0.00 49 1010.2
20260504010001 13 233 8.0 17.7 0.00 0.00 0.00 49 1010.1
20260504002959 14 229 3.2 12.9 0.00 0.00 0.00 48 1009.8
20260504001500 14 207 3.2 8.0 0.00 0.00 0.00 48 1009.8
20260503235959 14 208 3.2 8.0 0.00 0.00 0.00 48 1009.5
20260503234500 15 205 3.2 8.0 0.00 0.00 0.00 47 1009.3
20260503232959 15 199 3.2 6.4 0.00 0.00 0.00 46 1009.3
20260503231459 15 200 3.2 6.4 0.00 0.00 0.00 46 1009.4
20260503230002 15 210 3.2 8.0 0.00 0.00 0.00 43 1009.3
20260503224501 16 209 3.2 6.4 0.00 0.00 0.00 43 1009.4
20260503223001 16 217 0.0 4.8 0.00 0.00 0.00 44 1009.5
20260503221500 16 233 1.6 8.0 0.00 0.00 0.00 43 1009.5
20260503220002 16 140 3.2 9.7 0.00 0.00 0.00 46 1009.4
20260503214500 17 202 1.6 8.0 0.00 0.00 0.00 43 1009.6
20260503213001 17 183 3.2 8.0 0.00 0.00 0.00 47 1009.5
20260503211501 18 308 3.2 8.0 0.00 0.00 0.00 43 1009.7
20260503210001 18 183 1.6 6.4 0.00 0.00 0.00 41 1009.7
20260503202959 17 211 3.2 8.0 0.00 0.00 0.00 42 1010.1
20260503201500 17 139 3.2 8.0 0.00 0.00 0.00 46 1010.5
20260503200002 17 185 3.2 9.7 0.00 0.00 0.00 42 1010.6
20260503194459 17 340 4.8 8.0 0.00 0.00 0.00 50 1011.0
20260503193000 16 207 4.8 9.7 0.00 0.00 0.00 44 1011.1
20260503191459 17 218 3.2 8.0 0.00 0.00 0.00 42 1011.3
20260503190000 16 190 3.2 11.3 0.00 0.00 0.00 49 1011.4
20260503184500 16 140 3.2 8.0 0.00 0.00 0.00 43 1011.5
20260503183000 16 234 4.8 12.9 0.00 0.00 0.00 45 1011.6
20260503171501 16 51 1.6 4.8 0.00 0.00 0.00 51 1012.4
20260503081458 6 336 3.2 6.4 0.00 0.00 0.00 73 1010.4